Hourly Data Report for June 12, 2012

All times are specified in Local Standard Time (LST). Add 1 hour to adjust for Daylight Saving Time where and when it is observed.

SAINT JOHN A
NEW BRUNSWICK

45°18'58.000" N
65°53'24.000" W
108.80 m
8104901
71609
YSJ

Download Data

Hourly Data (June 2012)
Hourly Data Report for June 12, 2012
Temp Definition
°C
Dew Point Temp Definition
°C
Rel Hum Definition
%
Wind Dir Definition
10's deg

Wind Spd Definition
km/h
Visibility Definition
km
Stn Press Definition
kPa
Hmdx Definition


Wind Chill Definition


Weather Definition


TIME
00:00 9.9 9.8 99 19 12 1.2 101.03     Fog
01:00 9.7 9.7 100 20 9 0.8 101.01     Fog
02:00 9.4 9.4 100 18 12 1.6 101.02     Fog
03:00 9.2 8.9 98 17 6 10.0 100.98     LegendNANA
04:00 8.7 8.4 98 18 10 10.0 100.95     LegendNANA
05:00 7.8 7.5 98 19 7 10.0 100.98     Mostly Cloudy
06:00 10.4 9.5 94 18 11 10.0 100.98     LegendNANA
07:00 12.2 10.3 88 19 13 10.0 100.97     LegendNANA
08:00 14.3 10.0 75 18 14 10.0 100.92     Mostly Cloudy
09:00 17.0 9.5 61 18 18 10.0 100.83     LegendNANA
10:00 17.0 9.8 62 22 23 10.0 100.83     LegendNANA
11:00 17.5 10.0 61 20 21 10.0 100.83     Mainly Clear
12:00 17.9 9.4 57 21 23 10.0 100.78     LegendNANA
13:00 18.5 8.9 53 20 24 10.0 100.78     LegendNANA
14:00 17.5 8.7 56 19 23 10.0 100.73     Mainly Clear
15:00 18.1 9.0 55 21 26 10.0 100.68     LegendNANA
16:00 18.6 9.8 56 21 26 10.0 100.63     LegendNANA
17:00 17.0 8.8 58 21 27 10.0 100.60     Mostly Cloudy
18:00 15.2 8.7 65 22 21 10.0 100.57     LegendNANA
19:00 12.4 8.9 79 22 18 10.0 100.56     LegendNANA
20:00 11.8 8.7 81 22 11 10.0 100.55     Mostly Cloudy
21:00 11.3 8.9 85 21 12 10.0 100.53     LegendNANA
22:00 11.9 8.2 78 18 12 10.0 100.54     LegendNANA
23:00 10.8 7.2 78 17 12 10.0 100.52     Mostly Cloudy

Notes on Data Quality.

Legend

  • E = Estimated
  • M = Missing
  • NA = Not Available
Date modified: